Location: Auckland
(36.8670°S, 174.7670°E)
Time: 06:53:50
(UTC+12:00)

Explorer 7 - All Passes

Search period start: 17 July 2019 00:00
Search period end: 27 July 2019 00:00
Orbit: 485 x 680 km, 50.3° (Epoch: 16 July)

Date Brightness Start Highest point End Pass type
(mag) Time Alt. Az. Time Alt. Az. Time Alt. Az.
17 Jul - 10:12:06 10° NNW 10:16:23 31° NE 10:20:44 10° ESE daylight
17 Jul - 11:52:03 10° WNW 11:56:53 51° SSW 12:01:43 10° SE daylight
17 Jul - 13:34:48 10° WSW 13:38:25 20° SSW 13:41:59 10° SSE daylight
17 Jul - 15:17:19 10° SW 15:20:32 17° S 15:23:39 10° SE daylight
17 Jul - 16:57:53 10° SW 17:02:18 35° SSE 17:06:27 10° E daylight
17 Jul - 18:38:35 10° WSW 18:43:00 44° NW 18:47:06 10° NNE visible
18 Jul - 10:16:35 10° NNW 10:21:18 50° NE 10:26:07 10° ESE daylight
18 Jul - 11:57:31 10° W 12:02:06 36° SSW 12:06:41 10° SE daylight
18 Jul - 13:40:34 10° SW 13:43:52 17° S 13:47:09 10° SE daylight
18 Jul - 15:22:28 10° SSW 15:25:59 19° SSE 15:29:24 10° ESE daylight
18 Jul - 17:02:51 10° SW 17:07:32 51° SSE 17:11:54 10° ENE daylight
18 Jul - 18:44:03 10° WSW 18:47:53 26° NW 18:51:30 10° N visible
19 Jul - 08:44:08 10° NNE 08:46:19 13° NE 08:48:31 10° E daylight
19 Jul - 10:21:25 10° NW 10:26:18 81° NE 10:31:18 10° SE daylight
19 Jul - 12:03:09 10° W 12:07:24 28° SSW 12:11:39 10° SE daylight
19 Jul - 13:46:13 10° SW 13:49:21 17° S 13:52:29 10° SE daylight
19 Jul - 15:27:31 10° SW 15:31:25 23° SSE 15:35:10 10° ESE daylight
19 Jul - 17:07:52 10° SW 17:12:40 79° SE 17:17:08 10° NE daylight
19 Jul - 18:50:01 10° W 18:52:41 15° NW 18:55:17 10° NNW visible
20 Jul - 08:47:25 10° N 08:51:06 22° NE 08:54:53 10° ESE daylight
20 Jul - 10:26:31 10° WNW 10:31:23 67° SW 10:36:22 10° SE daylight
20 Jul - 12:08:53 10° WSW 12:12:47 22° SSW 12:16:39 10° SE daylight
20 Jul - 13:51:40 10° SW 13:54:52 17° S 13:57:59 10° SE daylight
20 Jul - 15:32:28 10° SW 15:36:46 30° SSE 15:40:51 10° E daylight
20 Jul - 17:12:59 10° WSW 17:17:43 64° NW 17:22:07 10° NE daylight
21 Jul - 08:51:35 10° NNW 08:55:58 36° NE 09:00:30 10° ESE daylight
21 Jul - 10:31:51 10° WNW 10:36:34 45° SSW 10:41:21 10° SE daylight
21 Jul - 12:14:40 10° WSW 12:18:12 19° SSW 12:21:43 10° SE daylight
21 Jul - 13:56:56 10° SW 14:00:21 18° S 14:03:40 10° SE daylight
21 Jul - 15:37:26 10° SW 15:42:03 40° SSE 15:46:25 10° E daylight
21 Jul - 17:18:15 10° WSW 17:22:39 38° NW 17:26:48 10° NNE daylight
22 Jul - 08:56:11 10° NW 09:00:54 59° NE 09:05:49 10° ESE daylight
22 Jul - 10:37:22 10° W 10:41:49 33° SSW 10:46:19 10° SE daylight
22 Jul - 12:20:23 10° SW 12:23:40 17° S 12:26:57 10° SE daylight
22 Jul - 14:02:03 10° SW 14:05:47 21° SSE 14:09:26 10° ESE daylight
22 Jul - 15:42:25 10° SW 15:47:14 60° SE 15:51:48 10° ENE daylight
22 Jul - 17:23:49 10° WSW 17:27:31 23° NW 17:31:03 10° N daylight
23 Jul - 07:23:09 10° NNE 07:25:53 15° NE 07:28:41 10° E daylight
23 Jul - 09:01:06 10° NW 09:05:56 88° SW 09:10:56 10° SE daylight
23 Jul - 10:43:02 10° WSW 10:47:08 25° SSW 10:51:17 10° SE daylight
23 Jul - 12:25:58 10° SW 12:29:10 17° S 12:32:20 10° SE daylight
23 Jul - 14:07:03 10° SW 14:11:11 26° SSE 14:15:11 10° ESE daylight
23 Jul - 15:47:27 10° SW 15:52:21 89° NW 15:56:57 10° NE daylight
23 Jul - 17:30:03 10° W 17:32:18 13° NW 17:34:28 10° NNW daylight
24 Jul - 07:26:48 10° N 07:30:41 25° NE 07:34:42 10° ESE daylight
24 Jul - 09:06:17 10° WNW 09:11:03 58° SW 09:15:59 10° SE daylight
24 Jul - 10:48:47 10° WSW 10:52:32 21° SSW 10:56:19 10° SE daylight
24 Jul - 12:31:21 10° SW 12:34:40 17° S 12:37:56 10° SE daylight
24 Jul - 14:12:01 10° SW 14:16:30 33° SSE 14:20:49 10° E daylight
24 Jul - 15:52:36 10° WSW 15:57:22 55° NW 16:01:50 10° NNE daylight
25 Jul - 07:31:08 10° NNW 07:35:34 42° NE 07:40:12 10° ESE daylight
25 Jul - 09:11:41 10° W 09:16:15 40° SSW 09:20:57 10° SE daylight
25 Jul - 10:54:32 10° SW 10:57:59 18° S 11:01:26 10° SE daylight
25 Jul - 12:36:34 10° SW 12:40:07 19° SSE 12:43:38 10° ESE daylight
25 Jul - 14:16:59 10° SW 14:21:45 46° SSE 14:26:19 10° ENE daylight
25 Jul - 15:57:57 10° WSW 16:02:17 33° NW 16:06:23 10° NNE daylight
26 Jul - 07:35:51 10° NW 07:40:32 69° NE 07:45:27 10° SE daylight
26 Jul - 09:17:15 10° W 09:21:32 30° SSW 09:25:55 10° SE daylight
26 Jul - 11:00:13 10° SW 11:03:28 17° S 11:06:43 10° SE daylight
26 Jul - 12:41:38 10° SW 12:45:33 23° SSE 12:49:24 10° ESE daylight
26 Jul - 14:21:59 10° SW 14:26:56 69° SE 14:31:38 10° ENE daylight
26 Jul - 16:03:38 10° W 16:07:07 20° NW 16:10:28 10° N daylight
